Location: Cheyres
(46.8153°N, 6.7877°E)
Time: 13:23:17
(UTC+00:00)

Cosmos 468 - Pass Details

Date: 11 May 2021
Orbit: 762 x 783 km, 74.0° (Epoch: 19 June)

Event Time Altitude Azimuth Distance (km) Brightness Sun altitude
Rises 23:10:12 0° 338° (NNW) 3,263 9.0 -24.9°
Reaches altitude 10° 23:12:36 10° 339° (NNW) 2,328 8.0 -24.9°
Maximum altitude 23:17:54 85° 68° (ENE) 779 4.4 -25.0°
Enters shadow 23:18:26 73° 141° (SE) 809 4.4 -25.0°
